Printer-friendly version

IAU Minor Planet Center

Minor Planet Center

MPEC 2002-A69: 2002 AE9

The following Minor Planet Electronic Circular may be linked-to from your own Web pages, but must not otherwise be redistributed electronically.


Read MPEC 2002-A68 Read MPEC 2002-A70


M.P.E.C. 2002-A69                                Issued 2002 Jan. 12, 15:02 UT

     The Minor Planet Electronic Circulars contain information on unusual
         minor planets and routine data on comets.  They are published
   on behalf of Commission 20 of the International Astronomical Union by the
          Minor Planet Center, Smithsonian Astrophysical Observatory,
                          Cambridge, MA 02138, U.S.A.

             Prepared using the Tamkin Foundation Computer Network

                              MPC@CFA.HARVARD.EDU
          URL http://cfa-www.harvard.edu/iau/mpc.html  ISSN 1523-6714

                                   2002 AE9

Observations:
     K02A09E* C2002 01 11.37290 10 28 37.73 +01 11 06.2          19.1        704
     K02A09E  C2002 01 11.38835 10 28 38.57 +01 11 53.5          19.4        704
     K02A09E  C2002 01 11.40354 10 28 39.45 +01 12 39.7          18.9        704
     K02A09E  C2002 01 12.02130 10 29 18.74 +01 44 37.4          17.7 R      046
     K02A09E  C2002 01 12.02535 10 29 18.98 +01 44 50.8                      046
     K02A09E  C2002 01 12.02625 10 29 19.16 +01 44 52.9                      046
     K02A09E  C2002 01 12.02718 10 29 19.17 +01 44 55.0          18.1 R      046
     K02A09E  C2002 01 12.37207 10 29 41.13 +02 03 35.4          18.8 R      711
     K02A09E  C2002 01 12.37909 10 29 41.51 +02 03 58.4          18.7 R      711
     K02A09E  C2002 01 12.38612 10 29 41.91 +02 04 21.4          18.7 R      711

Observer details:
046 Klet.  Observers J. Ticha, M. Tichy.  0.57-m f/5.2 reflector + CCD.
704 Lincoln Laboratory ETS, New Mexico.  Observers M. Blythe, F. Shelly,
    M. Bezpalko, R. Huber, L. Manguso, S. Adams, J. Piscitelli.  Measurers
    J. Stuart, R. Sayer, J. B. Evans, H. Viggh.  1.0-m f/2.15 reflector + CCD.
711 McDonald Observatory.  Observers P. J. Shelus, J. G. Ries.  0.76-m
    reflector + CCD.

Orbital elements:
2002 AE9
Epoch 2002 Jan. 6.0 TT = JDT 2452280.5                  MPC
M 292.26821              (2000.0)            P               Q
n   0.68569599     Peri.  123.21237     -0.12387431     +0.81830438
a   1.2736447      Node   128.08136     -0.96480980     -0.23153676
e   0.5422991      Incl.   45.48475     +0.23194223     -0.52608809
P   1.44           H   18.7           G   0.15
From 10 observations 2002 Jan. 11-12.

Ephemeris:
2002 AE9                 a,e,i = 1.27, 0.54, 45                  q = 0.5829
Date    TT    R. A. (2000) Decl.     Delta      r     Elong.  Phase     V
2002 01 06    10 23.09   -02 30.9    0.544    1.375   126.1    35.3    19.5
2002 01 08    10 25.13   -01 18.6    0.511    1.360   128.2    34.6    19.3
2002 01 10    10 27.19   +00 05.5    0.479    1.345   130.4    33.8    19.2
2002 01 12    10 29.28   +01 43.7    0.448    1.329   132.8    32.9    19.0
2002 01 14    10 31.43   +03 38.6    0.417    1.313   135.2    31.9    18.7
2002 01 16    10 33.66   +05 53.3    0.388    1.297   137.7    30.7    18.5
2002 01 18    10 36.01   +08 31.8    0.359    1.281   140.3    29.4    18.3
2002 01 20    10 38.52   +11 38.8    0.331    1.264   142.8    28.1    18.1
2002 01 22    10 41.25   +15 19.8    0.306    1.247   145.2    26.8    17.8
2002 01 24    10 44.30   +19 40.7    0.282    1.230   147.1    25.8    17.6
2002 01 26    10 47.80   +24 47.8    0.260    1.213   148.2    25.3    17.4
2002 01 28    10 51.96   +30 46.2    0.241    1.196   147.9    26.0    17.2
2002 01 30    10 57.11   +37 37.8    0.225    1.178   145.7    28.1    17.1
2002 02 01    11 03.82   +45 18.8    0.214    1.160   141.5    31.9    17.0
2002 02 03    11 13.13   +53 36.5    0.207    1.142   135.5    37.2    17.1
2002 02 05    11 27.26   +62 09.3    0.205    1.124   128.3    43.5    17.2
2002 02 07    11 51.6    +70 28.1    0.207    1.106   120.4    50.3    17.4
2002 02 09    12 42.7    +77 55.3    0.214    1.087   112.6    56.9    17.6
2002 02 11    14 59.0    +83 08.5    0.225    1.068   105.2    63.1    17.8
2002 02 13    18 43.5    +82 49.1    0.240    1.050    98.4    68.5    18.1
2002 02 15    20 29.0    +78 46.3    0.256    1.030    92.3    73.3    18.4
2002 02 17    21 10.3    +74 23.8    0.275    1.011    86.9    77.3    18.6
2002 02 19    21 30.9    +70 23.5    0.296    0.992    82.1    80.8    18.9
2002 02 21    21 43.14   +66 50.1    0.317    0.973    77.8    83.6    19.1
2002 02 23    21 51.21   +63 41.3    0.339    0.953    73.9    86.1    19.3
2002 02 25    21 56.94   +60 53.5    0.362    0.933    70.5    88.1    19.4
2002 02 27    22 01.25   +58 23.1    0.385    0.914    67.3    89.8    19.6
2002 03 01    22 04.64   +56 06.7    0.408    0.894    64.5    91.2    19.7
2002 03 03    22 07.41   +54 01.8    0.432    0.874    61.8    92.4    19.9
2002 03 05    22 09.77   +52 05.9    0.455    0.855    59.4    93.4    20.0
2002 03 07    22 11.84   +50 17.3    0.479    0.835    57.1    94.1    20.1
2002 03 09    22 13.72   +48 34.2    0.502    0.816    55.0    94.8    20.1
2002 03 11    22 15.50   +46 55.3    0.525    0.797    53.0    95.2    20.2
2002 03 13    22 17.23   +45 19.6    0.549    0.778    51.2    95.5    20.3
2002 03 15    22 18.96   +43 45.9    0.572    0.759    49.4    95.7    20.3
2002 03 17    22 20.74   +42 13.5    0.595    0.741    47.8    95.7    20.3
2002 03 19    22 22.61   +40 41.8    0.617    0.723    46.3    95.6    20.4
2002 03 21    22 24.61   +39 10.1    0.640    0.706    44.8    95.4    20.4
2002 03 23    22 26.78   +37 38.1    0.662    0.689    43.5    95.0    20.4
2002 03 25    22 29.15   +36 05.3    0.685    0.673    42.3    94.5    20.4
2002 03 27    22 31.76   +34 31.7    0.707    0.658    41.2    93.9    20.4

2002 04 06    22 49.26   +26 28.9    0.817    0.601    36.9    88.5    20.3
2002 04 16    23 15.52   +18 22.9    0.923    0.583    34.9    80.1    20.2
2002 04 26    23 49.67   +11 02.1    1.022    0.612    35.1    71.1    20.2
2002 05 06    00 28.42   +05 01.9    1.112    0.676    36.8    63.3    20.3
2002 05 16    01 08.37   +00 24.0    1.192    0.763    39.5    57.4    20.6
2002 05 26    01 47.35   -03 08.5    1.264    0.859    42.6    52.9    20.8
2002 06 05    02 24.30   -05 55.1    1.329    0.957    45.8    49.5    21.1
2002 06 15    02 58.80   -08 12.4    1.388    1.054    49.0    46.7    21.3
2002 06 25    03 30.72   -10 12.8    1.440    1.146    52.2    44.5    21.5
2002 07 05    04 00.10   -12 05.0    1.485    1.234    55.4    42.7    21.7
2002 07 15    04 27.04   -13 55.5    1.523    1.316    58.5    41.2    21.8
2002 07 25    04 51.61   -15 48.6    1.552    1.394    61.6    39.9    22.0

Brian G. Marsden             (C) Copyright 2002 MPC           M.P.E.C. 2002-A69

Read MPEC 2002-A68 Read MPEC 2002-A70


Our Web policy. Index to the CBAT/MPC/ICQ pages.


Valid HTML 4.01!